Location: Coopersdale
(40.3556°N, 78.9372°W)
Time: 09:34:52
(UTC+00:00)

Vanguard 1 - Pass Details

Date: 26 January 2021
Orbit: 649 x 3834 km, 34.2° (Epoch: 07 March)

Event Time Altitude Azimuth Distance (km) Brightness Sun altitude
Rises 02:26:28 0° 280° (W) 7,809 15.4 -45.5°
Reaches altitude 10° 02:37:25 10° 257° (WSW) 6,219 14.5 -47.5°
Maximum altitude 02:43:10 12° 239° (WSW) 5,600 14.1 -48.6°
Drops below altitude 10° 02:48:13 10° 220° (SW) 5,315 13.9 -49.5°
Sets 02:55:36 0° 193° (SSW) 5,524 13.8 -50.8°
Enters shadow 02:55:43 - 192° (SSW) 5,533 13.8 -50.8°
